TimePDT,TemperatureF,Dew PointF,Humidity,Sea Level PressureIn,VisibilityMPH,Wind Direction,Wind SpeedMPH,Gust SpeedMPH,PrecipitationIn,Events,Conditions,WindDirDegrees,DateUTC
12:53 AM,73.9,63.0,68,29.93,1.2,NNW,11.5,-,N/A,,Haze,330,2013-07-01 07:53:00
1:23 AM,73.4,62.6,69,29.91,2.0,NW,9.2,-,N/A,,Haze,320,2013-07-01 08:23:00
1:43 AM,73.4,62.6,69,29.92,4.0,NNW,5.8,-,N/A,,Haze,340,2013-07-01 08:43:00
1:53 AM,73.0,62.1,68,29.93,4.0,NNW,6.9,-,N/A,,Haze,340,2013-07-01 08:53:00
2:53 AM,71.1,63.0,75,29.93,6.0,NNW,4.6,-,N/A,,Haze,340,2013-07-01 09:53:00
3:53 AM,71.1,62.1,73,29.94,5.0,NNW,6.9,-,N/A,,Haze,330,2013-07-01 10:53:00
4:53 AM,70.0,60.1,71,29.95,7.0,NNW,4.6,-,N/A,,Clear,340,2013-07-01 11:53:00
5:53 AM,69.1,57.9,68,29.96,4.0,NNW,8.1,-,N/A,,Haze,330,2013-07-01 12:53:00
6:53 AM,70.0,59.0,68,29.97,8.0,NNW,4.6,-,N/A,,Clear,330,2013-07-01 13:53:00
7:53 AM,72.0,57.9,61,29.98,10.0,WNW,6.9,-,N/A,,Clear,300,2013-07-01 14:53:00
8:53 AM,73.9,60.1,62,29.96,10.0,NNW,6.9,-,N/A,,Clear,330,2013-07-01 15:53:00
9:53 AM,75.9,60.1,58,29.95,10.0,NW,9.2,-,N/A,,Clear,310,2013-07-01 16:53:00
10:53 AM,79.0,60.1,52,29.95,10.0,NW,8.1,-,N/A,,Clear,310,2013-07-01 17:53:00
11:53 AM,81.0,60.1,49,29.95,10.0,North,4.6,-,N/A,,Clear,350,2013-07-01 18:53:00
12:53 PM,81.0,60.1,49,29.96,10.0,NW,9.2,-,N/A,,Clear,320,2013-07-01 19:53:00
1:53 PM,82.9,60.1,46,29.96,10.0,NW,10.4,-,N/A,,Clear,320,2013-07-01 20:53:00
2:53 PM,86.0,59.0,40,29.96,10.0,NW,8.1,-,N/A,,Clear,310,2013-07-01 21:53:00
3:53 PM,87.1,61.0,41,29.96,10.0,NNW,4.6,-,N/A,,Clear,330,2013-07-01 22:53:00
4:53 PM,87.1,61.0,41,29.96,10.0,NW,3.5,-,N/A,,Clear,320,2013-07-01 23:53:00
5:53 PM,88.0,63.0,43,29.95,10.0,NNW,4.6,-,N/A,,Clear,330,2013-07-02 00:53:00
6:53 PM,88.0,63.0,43,29.95,10.0,NNW,4.6,-,N/A,,Clear,330,2013-07-02 01:53:00
7:53 PM,87.1,63.0,44,29.96,10.0,West,4.6,-,N/A,,Clear,260,2013-07-02 02:53:00
8:53 PM,80.1,63.0,56,29.98,10.0,WNW,6.9,-,N/A,,Clear,290,2013-07-02 03:53:00
9:53 PM,79.0,63.0,58,29.99,10.0,Calm,Calm,-,N/A,,Clear,0,2013-07-02 04:53:00
10:53 PM,77.0,63.0,62,30.00,10.0,South,5.8,-,N/A,,Clear,190,2013-07-02 05:53:00